Weather History for Sedalia, MO

Change the Weather History Date:

Saturday, March 9, 2013

  Actual Average Record
Temperature  
Mean Temperature 53 °F 44 °F  
Max Temperature 66 °F 54 °F 81 °F (1992)
Min Temperature 39 °F 33 °F 6 °F (1969)
Degree Days  
Heating Degree Days 12 21  
Month to date heating degree days 273 205  
Since 1 July heating degree days 3711 3822  
Cooling Degree Days 0 0  
Month to date cooling degree days 0 0  
Year to date cooling degree days 1 0  
Growing Degree Days 2 (Base 50)    
Moisture  
Dew Point 41 °F    
Average Humidity 69    
Maximum Humidity 92    
Minimum Humidity 46    
Precipitation  
Precipitation 0.57 in 0.08 in 1.23 in (1958)
Month to date precipitation 0.65 0.73  
Year to date precipitation 5.92 4.33  
Sea Level Pressure  
Sea Level Pressure 29.89 in    
Wind  
Wind Speed 14 mph (SSE)    
Max Wind Speed 22 mph    
Max Gust Speed 28 mph    
Visibility 8 miles    
Events Rain    
T = Trace of Precipitation, MM = Missing Value Source: NWS Daily Summary

Daily Weather History Graph

Daily Weather History Graph

Search for Another Location

Airport:

Trip Planner

Search our weather history database for the weather conditions in past years. The results will help you decide how hot, cold, wet, or windy it might be!

Date:

Astronomy

Mar. 09, 2013 Rise Set
Actual Time 6:32 AM CST 6:14 PM CST
Civil Twilight 6:06 AM CST 6:40 PM CST
Nautical Twilight 5:35 AM CST 7:11 PM CST
Astronomical Twilight 5:04 AM CST 7:42 PM CST
Moon 4:56 AM CST (3/9) 4:17 PM CST (3/9)
Length of Visible Light 12h 34m
Length of Day
11h 41m
Waning Crescent, 5% of the Moon is Illuminated
Mar 9
Waning Crescent
Mar 11
New
Mar 19
First Quarter
Mar 27
Full
Apr 2
Last Quarter

Hourly Weather History & Observations

Time (CST) Temp. Windchill Dew Point Humidity Pressure Visibility Wind Dir Wind Speed Gust Speed Precip Events Conditions
12:53 AM 43.0 °F 37.2 °F 34.0 °F 71% 30.08 in 8.0 mi South 10.4 mph - 0.05 in Rain Light Rain
1:03 AM 42.8 °F 35.8 °F 35.6 °F 76% 30.06 in 3.0 mi SSE 13.8 mph - 0.05 in Rain Rain
1:12 AM 39.2 °F 32.0 °F 35.6 °F 87% 30.07 in 2.5 mi South 11.5 mph - 0.11 in Rain Light Rain
1:20 AM 41.0 °F 34.7 °F 35.6 °F 81% 30.07 in 6.0 mi South 10.4 mph - 0.11 in Rain Light Rain
1:53 AM 39.9 °F 35.1 °F 36.0 °F 86% 30.09 in 5.0 mi South 6.9 mph - 0.16 in Rain Light Rain
2:06 AM 39.2 °F 33.6 °F 37.4 °F 93% 30.06 in 2.5 mi South 8.1 mph - 0.05 in Rain Light Rain
2:13 AM 39.2 °F 33.6 °F 37.4 °F 93% 30.06 in 3.0 mi SSE 8.1 mph - 0.06 in Rain Light Rain
2:24 AM 39.2 °F 33.6 °F 37.4 °F 93% 30.05 in 2.5 mi SE 8.1 mph - 0.10 in Rain Rain
2:43 AM 39.2 °F 32.0 °F 37.4 °F 93% 30.03 in 4.0 mi SE 11.5 mph - 0.16 in Rain Light Rain
2:53 AM 39.9 °F 32.5 °F 37.0 °F 89% 30.04 in 5.0 mi SE 12.7 mph - 0.16 in Rain Light Rain
3:53 AM 41.0 °F 33.5 °F 37.9 °F 89% 30.01 in 7.0 mi SSE 13.8 mph - 0.05 in Rain Light Rain
4:53 AM 41.0 °F 32.5 °F 37.9 °F 89% 29.99 in 8.0 mi SSE 17.3 mph - 0.00 in   Overcast
5:53 AM 42.1 °F 34.9 °F 37.9 °F 85% 29.97 in 9.0 mi SSE 13.8 mph - N/A   Overcast
6:53 AM 42.1 °F 34.5 °F 37.9 °F 85% 29.96 in 9.0 mi SSE 15.0 mph - N/A   Partly Cloudy
7:53 AM 43.0 °F 36.4 °F 37.9 °F 82% 29.96 in 10.0 mi SSE 12.7 mph - N/A   Overcast
8:53 AM 44.1 °F 37.4 °F 37.9 °F 79% 29.93 in 10.0 mi SSE 13.8 mph - N/A   Overcast
9:53 AM 45.0 °F 38.2 °F 37.0 °F 74% 29.91 in 10.0 mi SSE 15.0 mph - N/A   Overcast
10:53 AM 48.9 °F - 37.9 °F 66% 29.88 in 10.0 mi SSE 13.8 mph - N/A   Overcast
11:53 AM 53.1 °F - 39.9 °F 61% 29.83 in 10.0 mi SE 10.4 mph - N/A   Overcast
12:53 PM 60.1 °F - 39.9 °F 47% 29.78 in 10.0 mi SSE 16.1 mph - N/A   Mostly Cloudy
1:53 PM 62.1 °F - 43.0 °F 50% 29.75 in 10.0 mi South 13.8 mph - N/A   Overcast
2:53 PM 64.0 °F - 45.0 °F 50% 29.73 in 10.0 mi South 15.0 mph 21.9 mph N/A   Overcast
3:53 PM 63.0 °F - 46.0 °F 54% 29.73 in 10.0 mi South 12.7 mph - N/A   Overcast
4:53 PM 62.1 °F - 46.9 °F 58% 29.71 in 10.0 mi South 11.5 mph - N/A   Overcast
5:53 PM 61.0 °F - 46.9 °F 60% 29.70 in 10.0 mi South 11.5 mph - N/A   Overcast
6:53 PM 61.0 °F - 48.9 °F 64% 29.70 in 10.0 mi South 13.8 mph - N/A   Overcast
7:53 PM 61.0 °F - 50.0 °F 67% 29.70 in 10.0 mi South 12.7 mph - N/A   Overcast
8:53 PM 59.0 °F - 53.1 °F 81% 29.70 in 10.0 mi South 12.7 mph - 0.01 in   Overcast
9:53 PM 57.9 °F - 53.1 °F 84% 29.70 in 10.0 mi SSE 19.6 mph 27.6 mph 0.01 in   Overcast
10:53 PM 57.0 °F - 53.1 °F 87% 29.70 in 6.0 mi South 15.0 mph 24.2 mph 0.01 in Rain Light Rain
11:53 PM 55.9 °F - 53.1 °F 90% 29.70 in 5.0 mi South 15.0 mph - 0.12 in Rain Light Rain